SCP
0 0 0 0 0 0 0 0 0 0 0 0 0 0 0 0 0 0 0 0 0 0 0 0 0 0 0 0 0 0 0 0 0 0 0 0 0 0
0 0 0 0 0 0 0 0 0 0 0 0 0 0 0 0 0 0 0 0 0 0 0 0 0 0 0 0 0 0 0 0 0 0 0 0 0 0
0 0 0 0 0 0 0 0 0 0 0 0 0 0 0 0 0 0 0 0 0 0 0 0 0 0 0 0 0 0 0 0 0 0 0 0 0 0
0 0 0 0 0 0 0 0 0 0 0 0 0 0 0 0 0 0 0 0 0 0 0 0 0 0 0 0 0 0 0 0 0 0 0 0 0 0
0 0 0 0 0 0 0 0 0 0 0 0 0 0 0 0 0 0 0 0 0 0 0 0 0 0 0 0 0 0 0 0 0 0 0 0 0 0
0 0 0 0 0 0 0 0 0 0 0 0 0 0 0 0 0 0 0 0 0 0 0 0 0 0 0 0 0 0 0 0 0 0 0 0 0 0
0 0 0 0 0 0 0 0 0 0 0 0 0 0 0 0 0 0 0 0 0 0 0 0 0 0 0 0 0 0 0 0 0 0 0 0 0 0
0 0 0 0 0 0 0 0 0 0 0 0 0 0 0 0 0 0 0 0 0 0 0 0 0 0 0 0 0 0 0 0 0 0 0 0 0 0
0 0 0 0 0 0 0 0 0 0 0 0 0 0 0 0 0 0 0 0 0 0 0 0 0 0 0 0 0 0 0 0 0 0 0 0 0 0
0 0 0 0 0 0 0 0 0 0 0 0 0 0 0 0 0 0 0 0 0 0 0 0 0 0 0 0 0 0 0 0 0 0 0 0 0 0
0 0 0 0 0 0 0 0 0 0 0 0 0 0 0 0 0 0 0 0 0 0 0 0 0 0 0 0 0 0 0 0 0 0 0 0 0 0
0 0 0 0 0 0 0 0 0 0 0 0 0 0 0 0 0 0 0 0 0 0 0 0 0 0 0 0 0 0 0 0 0 0 0 0 0 0
0 0 0 0 0 0 0 0 0 0 0 0 0 0 0 0 0 0 0 0 0 0 0 0 0 0 0 0 0 0 0 0 0 0 0 0 0 0
0 0 0 0 0 0 0 0 0 0 0 0 0 0 0 0 0 0 0 0 0 0 0 0 0 0 0 0 0 0 0 0 0 0 0 0 0 0
0 0 0 0 0 0 0 0 0 0 0 0 0 0 0 0 0 0 0 0 0 0 0 0 0 0 0 0 0 0 0 0 0 0 0 0 0 0
0 0 0 0 0 0 0 0 0 0 0 0 0 0 0 0 0 0 0 0 0 0 0 0 0 0 0 0 0 0 0 0 0 0 0 0 0 0
0 0 0 0 0 0 0 0 0 0 0 0 0 0 0 0 0 0 0 0 0 0 0 0 0 0 0 0 0 0 0 0 0 0 0 0 0 0
0 0 0 0 0 0 0 0 0 0 0 0 0 0 0 0 0 0 0 0 0 0 0 0 0 0 0 0 0 0 0 0 0 0 0 0 0 0
0 0 0 0 0 0 0 0 0 0 0 0 0 0 0 0 0 0 0 0 0 0 0 0 0 0 0 0 0 0 0 0 0 0 0 0 0 0
0 0 0 0 0 0 0 0 0 0 0 0 0 0 0 0 0 0 0 0 0 0 0 0 0 0 0 0 0 0 0 0 0 0 0 0 0 0
0 0 0 0 0 0 0 0 0 0 0 0 0 0 0 0 0 0 0 0 0 0 0 0 0 0 0 0 0 0 0 0 0 0 0 0 0 0
0 0 0 0 0 0 0 0 0 0 0 0 0 0 0 0 0 0 0 0 0 0 0 0 0 0 0 0 0 0 0 0 0 0 0 0 0 0
0 0 0 0 0 0 0 0 0 0 0 0 0 0 0 0 0 0 0 0 0 0 0 0 0 0 0 0 0 0 0 0 0 0 0 0 0 0
Wind_Speed_500mb
117 113 107 99 88 76 57 51 52 52 69 70 57 63 53 45 39 32 31 27 27 26 23 18 15 12 11 12 12 12 13 16 17 16 16 19 23 27
120 118 106 94 83 82 69 53 52 58 56 72 66 66 62 52 46 38 33 30 30 29 25 20 17 13 13 13 12 10 11 13 12 13 15 17 22 24
113 108 103 87 84 81 64 55 52 58 43 48 56 63 55 59 47 45 38 33 31 31 26 23 19 14 14 13 10 8 7 8 10 12 13 15 19 21
100 94 93 83 97 87 91 72 72 70 47 40 48 64 66 61 48 47 41 40 34 28 26 24 19 15 13 10 8 6 5 7 7 9 8 11 14 19
97 95 91 89 93 93 86 78 73 68 58 60 61 77 68 51 59 51 47 41 37 33 26 25 20 15 14 12 9 6 4 6 6 6 10 12 14 19
85 87 87 90 89 96 94 96 82 69 64 62 65 64 54 59 65 62 58 52 45 38 31 27 21 17 15 13 11 7 3 6 7 9 9 11 14 18
76 81 84 84 89 93 99 94 84 74 75 72 75 64 56 67 81 74 66 57 51 44 37 31 23 20 17 13 10 8 5 6 8 10 10 11 13 17
67 73 75 79 81 84 94 89 97 84 80 88 84 74 62 73 77 80 73 66 59 53 43 35 30 22 17 14 12 9 9 10 9 11 12 11 14 17
53 59 67 71 74 76 72 68 62 74 81 88 82 73 65 68 76 83 78 73 66 43 47 42 36 28 23 20 18 14 12 12 10 13 13 13 12 15
47 48 61 61 63 62 74 73 76 68 69 72 82 60 54 66 77 82 76 72 57 44 37 45 40 35 30 25 21 18 15 12 11 13 14 12 13 12
43 52 54 57 62 69 69 75 71 73 74 62 49 48 44 70 67 79 72 65 63 57 49 40 37 37 34 29 25 26 20 14 13 12 15 14 15 12
43 42 43 41 49 63 72 72 78 78 68 64 55 48 56 54 51 53 60 66 67 59 60 52 44 42 34 40 36 35 29 23 18 16 19 16 18 16
40 42 45 45 47 59 68 72 82 67 68 60 57 60 61 56 55 58 56 58 61 62 40 54 52 47 43 20 42 40 37 32 24 20 18 20 21 19
39 44 47 49 60 73 75 75 81 72 70 65 67 70 68 66 64 59 60 61 54 52 48 45 41 47 52 46 36 46 42 34 28 22 18 22 26 23
44 45 46 53 57 65 66 68 65 65 71 70 76 71 73 71 67 63 66 63 58 55 51 50 40 37 43 48 45 43 46 41 29 24 22 25 27 25
40 39 38 42 48 56 62 65 65 67 72 73 76 75 68 71 67 64 63 61 58 56 53 48 43 42 41 46 44 42 42 27 24 27 25 26 28 28
43 41 42 45 52 57 69 68 69 68 69 69 72 72 66 72 67 61 57 55 57 59 56 52 48 46 43 42 45 42 41 39 33 29 25 25 26 28
42 48 50 51 57 61 70 73 72 71 69 69 72 73 72 72 65 63 62 57 60 57 55 53 51 50 48 47 48 43 44 40 38 31 29 27 24 27
40 46 49 53 58 60 66 72 77 74 71 70 73 74 69 68 66 69 63 60 61 56 53 53 51 49 51 53 46 45 40 40 37 32 29 27 28 25
35 38 41 49 54 59 64 73 73 74 69 72 74 77 77 75 69 74 66 64 63 60 57 57 56 55 53 43 38 34 40 41 39 32 30 29 30 28
32 34 40 46 51 54 60 65 68 70 69 74 77 78 77 76 77 70 64 64 62 60 62 62 59 42 36 40 37 35 34 34 33 31 32 30 29 26
25 35 42 46 44 47 54 60 63 63 62 71 73 75 77 80 75 72 68 65 59 59 57 56 50 49 49 48 36 31 30 32 34 32 32 26 27 20
28 31 34 41 42 47 51 54 59 58 62 68 70 71 72 77 73 70 63 58 51 55 58 55 52 52 52 44 33 32 31 34 35 32 29 27 30 30
Wind_Direction_500mb
231 230 232 231 233 236 243 244 228 195 205 211 214 221 222 223 227 231 232 225 224 223 227 226 230 241 271 294 310 319 342 354 5 9 42 38 37 30
228 228 230 231 233 238 240 239 237 236 210 218 222 224 218 219 220 223 226 226 225 228 229 229 232 245 265 278 290 323 344 1 6 17 30 25 27 18
228 230 232 231 234 228 240 233 236 231 224 216 229 223 219 223 220 219 219 224 229 226 222 227 232 241 260 271 288 319 344 352 5 19 19 11 12 15
229 229 232 236 232 238 231 233 224 215 227 217 241 223 217 223 224 223 222 218 221 223 221 226 231 233 243 252 273 297 329 339 355 19 7 10 358 2
232 232 240 231 229 225 228 214 215 222 228 220 229 213 216 223 218 215 221 216 216 218 219 220 222 221 223 227 246 260 275 303 320 353 1 352 354 358
236 238 234 230 231 228 226 220 224 217 220 216 221 215 220 227 219 215 210 209 212 215 214 212 206 207 210 211 234 239 269 286 327 351 341 342 350 355
233 234 237 239 229 229 233 229 226 224 207 209 214 223 227 216 217 212 215 212 209 215 218 219 215 210 211 217 231 227 253 285 313 315 322 337 345 348
232 235 236 239 241 238 234 239 237 212 212 216 219 232 250 222 220 218 213 207 204 213 214 217 225 217 227 243 259 264 244 264 271 292 298 317 337 343
233 236 237 231 232 227 233 223 210 217 225 220 228 249 252 223 226 222 220 218 218 214 214 216 228 229 228 241 250 261 245 256 261 275 291 307 326 336
237 237 234 241 234 218 217 211 207 217 223 233 239 241 245 242 233 231 225 217 218 217 213 221 227 230 234 243 254 258 247 242 249 261 274 289 308 331
236 233 238 234 234 223 216 211 216 223 232 234 232 221 228 243 237 226 222 217 215 217 218 221 230 227 233 247 247 243 228 235 249 253 261 275 294 315
227 233 232 232 225 215 211 216 224 226 240 237 218 216 226 230 234 233 233 221 216 217 222 222 228 221 225 239 240 229 225 230 241 248 252 268 292 310
223 229 228 226 220 219 222 230 225 240 246 216 211 219 221 208 220 218 220 229 226 225 228 224 229 226 219 222 219 219 221 230 237 244 258 268 288 298
235 239 240 235 228 228 232 232 237 243 224 213 211 215 213 210 214 211 217 222 221 235 241 237 237 232 224 221 212 218 222 228 235 245 255 265 281 291
242 245 245 242 238 237 236 234 228 225 218 213 215 213 210 207 208 214 216 219 220 226 227 230 237 231 226 228 230 225 218 224 234 250 253 262 276 286
236 238 241 243 242 237 230 227 226 225 221 216 213 215 217 204 210 211 217 219 220 220 220 225 224 223 226 226 230 231 227 222 233 236 246 264 272 277
236 238 239 236 232 229 225 225 223 221 218 215 214 211 211 210 211 214 214 220 222 220 220 219 218 223 221 226 230 228 230 232 236 243 257 269 275 280
230 232 234 232 231 228 228 223 222 222 221 219 217 215 216 210 209 210 214 219 224 221 220 219 219 219 219 220 222 225 228 228 229 240 253 270 276 280
221 229 231 233 232 233 234 230 226 222 219 218 212 213 212 214 210 209 218 218 222 221 222 222 219 218 218 217 220 223 222 226 234 241 255 270 278 281
223 230 234 237 235 237 239 235 230 226 220 216 215 216 219 217 206 212 215 221 220 219 218 220 221 223 225 225 224 233 232 233 239 247 261 267 271 273
223 232 239 243 241 242 242 241 238 231 225 221 217 220 224 218 212 217 216 222 221 220 221 223 224 223 221 219 222 226 229 227 235 248 258 266 270 272
234 238 243 245 247 247 244 242 241 235 229 225 225 227 224 221 217 217 218 221 220 223 226 229 219 213 214 222 228 233 231 232 236 242 255 262 275 282
240 239 243 246 249 250 247 245 240 240 233 229 230 229 226 221 218 219 221 221 224 224 224 222 216 215 222 226 231 230 235 233 235 244 254 268 274 282
Wind_Speed_850mb
117 113 107 99 88 76 57 51 52 52 69 70 57 63 53 45 39 32 31 27 27 26 23 18 15 12 11 12 12 12 13 16 17 16 16 19 23 27
120 118 106 94 83 82 69 53 52 58 56 72 66 66 62 52 46 38 33 30 30 29 25 20 17 13 13 13 12 10 11 13 12 13 15 17 22 24
113 108 103 87 84 81 64 55 52 58 43 48 56 63 55 59 47 45 38 33 31 31 26 23 19 14 14 13 10 8 7 8 10 12 13 15 19 21
100 94 93 83 97 87 91 72 72 70 47 40 48 64 66 61 48 47 41 40 34 28 26 24 19 15 13 10 8 6 5 7 7 9 8 11 14 19
97 95 91 89 93 93 86 78 73 68 58 60 61 77 68 51 59 51 47 41 37 33 26 25 20 15 14 12 9 6 4 6 6 6 10 12 14 19
85 87 87 90 89 96 94 96 82 69 64 62 65 64 54 59 65 62 58 52 45 38 31 27 21 17 15 13 11 7 3 6 7 9 9 11 14 18
76 81 84 84 89 93 99 94 84 74 75 72 75 64 56 67 81 74 66 57 51 44 37 31 23 20 17 13 10 8 5 6 8 10 10 11 13 17
67 73 75 79 81 84 94 89 97 84 80 88 84 74 62 73 77 80 73 66 59 53 43 35 30 22 17 14 12 9 9 10 9 11 12 11 14 17
53 59 67 71 74 76 72 68 62 74 81 88 82 73 65 68 76 83 78 73 66 43 47 42 36 28 23 20 18 14 12 12 10 13 13 13 12 15
47 48 61 61 63 62 74 73 76 68 69 72 82 60 54 66 77 82 76 72 57 44 37 45 40 35 30 25 21 18 15 12 11 13 14 12 13 12
43 52 54 57 62 69 69 75 71 73 74 62 49 48 44 70 67 79 72 65 63 57 49 40 37 37 34 29 25 26 20 14 13 12 15 14 15 12
43 42 43 41 49 63 72 72 78 78 68 64 55 48 56 54 51 53 60 66 67 59 60 52 44 42 34 40 36 35 29 23 18 16 19 16 18 16
40 42 45 45 47 59 68 72 82 67 68 60 57 60 61 56 55 58 56 58 61 62 40 54 52 47 43 20 42 40 37 32 24 20 18 20 21 19
39 44 47 49 60 73 75 75 81 72 70 65 67 70 68 66 64 59 60 61 54 52 48 45 41 47 52 46 36 46 42 34 28 22 18 22 26 23
44 45 46 53 57 65 66 68 65 65 71 70 76 71 73 71 67 63 66 63 58 55 51 50 40 37 43 48 45 43 46 41 29 24 22 25 27 25
40 39 38 42 48 56 62 65 65 67 72 73 76 75 68 71 67 64 63 61 58 56 53 48 43 42 41 46 44 42 42 27 24 27 25 26 28 28
43 41 42 45 52 57 69 68 69 68 69 69 72 72 66 72 67 61 57 55 57 59 56 52 48 46 43 42 45 42 41 39 33 29 25 25 26 28
42 48 50 51 57 61 70 73 72 71 69 69 72 73 72 72 65 63 62 57 60 57 55 53 51 50 48 47 48 43 44 40 38 31 29 27 24 27
40 46 49 53 58 60 66 72 77 74 71 70 73 74 69 68 66 69 63 60 61 56 53 53 51 49 51 53 46 45 40 40 37 32 29 27 28 25
35 38 41 49 54 59 64 73 73 74 69 72 74 77 77 75 69 74 66 64 63 60 57 57 56 55 53 43 38 34 40 41 39 32 30 29 30 28
32 34 40 46 51 54 60 65 68 70 69 74 77 78 77 76 77 70 64 64 62 60 62 62 59 42 36 40 37 35 34 34 33 31 32 30 29 26
25 35 42 46 44 47 54 60 63 63 62 71 73 75 77 80 75 72 68 65 59 59 57 56 50 49 49 48 36 31 30 32 34 32 32 26 27 20
28 31 34 41 42 47 51 54 59 58 62 68 70 71 72 77 73 70 63 58 51 55 58 55 52 52 52 44 33 32 31 34 35 32 29 27 30 30
Wind_Direction_850mb
231 230 232 231 233 236 243 244 228 195 205 211 214 221 222 223 227 231 232 225 224 223 227 226 230 241 271 294 310 319 342 354 5 9 42 38 37 30
228 228 230 231 233 238 240 239 237 236 210 218 222 224 218 219 220 223 226 226 225 228 229 229 232 245 265 278 290 323 344 1 6 17 30 25 27 18
228 230 232 231 234 228 240 233 236 231 224 216 229 223 219 223 220 219 219 224 229 226 222 227 232 241 260 271 288 319 344 352 5 19 19 11 12 15
229 229 232 236 232 238 231 233 224 215 227 217 241 223 217 223 224 223 222 218 221 223 221 226 231 233 243 252 273 297 329 339 355 19 7 10 358 2
232 232 240 231 229 225 228 214 215 222 228 220 229 213 216 223 218 215 221 216 216 218 219 220 222 221 223 227 246 260 275 303 320 353 1 352 354 358
236 238 234 230 231 228 226 220 224 217 220 216 221 215 220 227 219 215 210 209 212 215 214 212 206 207 210 211 234 239 269 286 327 351 341 342 350 355
233 234 237 239 229 229 233 229 226 224 207 209 214 223 227 216 217 212 215 212 209 215 218 219 215 210 211 217 231 227 253 285 313 315 322 337 345 348
232 235 236 239 241 238 234 239 237 212 212 216 219 232 250 222 220 218 213 207 204 213 214 217 225 217 227 243 259 264 244 264 271 292 298 317 337 343
233 236 237 231 232 227 233 223 210 217 225 220 228 249 252 223 226 222 220 218 218 214 214 216 228 229 228 241 250 261 245 256 261 275 291 307 326 336
237 237 234 241 234 218 217 211 207 217 223 233 239 241 245 242 233 231 225 217 218 217 213 221 227 230 234 243 254 258 247 242 249 261 274 289 308 331
236 233 238 234 234 223 216 211 216 223 232 234 232 221 228 243 237 226 222 217 215 217 218 221 230 227 233 247 247 243 228 235 249 253 261 275 294 315
227 233 232 232 225 215 211 216 224 226 240 237 218 216 226 230 234 233 233 221 216 217 222 222 228 221 225 239 240 229 225 230 241 248 252 268 292 310
223 229 228 226 220 219 222 230 225 240 246 216 211 219 221 208 220 218 220 229 226 225 228 224 229 226 219 222 219 219 221 230 237 244 258 268 288 298
235 239 240 235 228 228 232 232 237 243 224 213 211 215 213 210 214 211 217 222 221 235 241 237 237 232 224 221 212 218 222 228 235 245 255 265 281 291
242 245 245 242 238 237 236 234 228 225 218 213 215 213 210 207 208 214 216 219 220 226 227 230 237 231 226 228 230 225 218 224 234 250 253 262 276 286
236 238 241 243 242 237 230 227 226 225 221 216 213 215 217 204 210 211 217 219 220 220 220 225 224 223 226 226 230 231 227 222 233 236 246 264 272 277
236 238 239 236 232 229 225 225 223 221 218 215 214 211 211 210 211 214 214 220 222 220 220 219 218 223 221 226 230 228 230 232 236 243 257 269 275 280
230 232 234 232 231 228 228 223 222 222 221 219 217 215 216 210 209 210 214 219 224 221 220 219 219 219 219 220 222 225 228 228 229 240 253 270 276 280
221 229 231 233 232 233 234 230 226 222 219 218 212 213 212 214 210 209 218 218 222 221 222 222 219 218 218 217 220 223 222 226 234 241 255 270 278 281
223 230 234 237 235 237 239 235 230 226 220 216 215 216 219 217 206 212 215 221 220 219 218 220 221 223 225 225 224 233 232 233 239 247 261 267 271 273
223 232 239 243 241 242 242 241 238 231 225 221 217 220 224 218 212 217 216 222 221 220 221 223 224 223 221 219 222 226 229 227 235 248 258 266 270 272
234 238 243 245 247 247 244 242 241 235 229 225 225 227 224 221 217 217 218 221 220 223 226 229 219 213 214 222 228 233 231 232 236 242 255 262 275 282
240 239 243 246 249 250 247 245 240 240 233 229 230 229 226 221 218 219 221 221 224 224 224 222 216 215 222 226 231 230 235 233 235 244 254 268 274 282